Time,TemperatureF,DewpointF,PressureIn,WindDirection,WindDirectionDegrees,WindSpeedMPH,WindSpeedGustMPH,Humidity,HourlyPrecipIn,Conditions,Clouds,dailyrainin,SoftwareType,DateUTC
2013-01-19 00:02:00,38.0,27.0,-100.00,South,190,4.0,7.0,66,0.00,,,-99.99,,2013-01-19 06:02:00,
2013-01-19 00:12:00,38.0,28.0,-100.00,SSW,200,4.0,7.0,67,0.00,,,-99.99,,2013-01-19 06:12:00,
2013-01-19 00:22:00,38.0,28.0,-100.00,SSW,195,4.0,6.0,67,0.00,,,-99.99,,2013-01-19 06:22:00,
2013-01-19 00:32:00,38.0,28.0,-100.00,SSW,210,4.0,7.0,67,0.00,,,-99.99,,2013-01-19 06:32:00,
2013-01-19 00:43:00,38.0,28.0,-100.00,SSW,210,4.0,7.0,67,0.00,,,-99.99,,2013-01-19 06:43:00,
2013-01-19 00:52:00,38.0,28.0,-100.00,South,180,2.0,4.0,67,0.00,,,-99.99,,2013-01-19 06:52:00,
2013-01-19 01:02:00,38.0,28.0,-100.00,South,180,2.0,4.0,67,0.00,,,-99.99,,2013-01-19 07:02:00,
2013-01-19 01:12:00,38.0,28.0,-100.00,South,190,4.0,5.0,67,0.00,,,-99.99,,2013-01-19 07:12:00,
2013-01-19 01:22:00,38.0,28.0,-100.00,SSE,165,3.0,5.0,67,0.00,,,-99.99,,2013-01-19 07:22:00,
2013-01-19 01:32:00,38.0,28.0,-100.00,SSW,200,6.0,7.0,67,0.00,,,-99.99,,2013-01-19 07:32:00,
2013-01-19 01:42:00,38.0,28.0,-100.00,SSW,200,6.0,7.0,67,0.00,,,-99.99,,2013-01-19 07:42:00,
2013-01-19 01:52:00,38.0,28.0,-100.00,SSW,205,6.0,7.0,67,0.00,,,-99.99,,2013-01-19 07:52:00,
2013-01-19 02:02:00,38.0,28.0,-100.00,SSW,205,6.0,7.0,67,0.00,,,-99.99,,2013-01-19 08:02:00,
2013-01-19 02:12:00,38.0,28.0,-100.00,SSW,200,4.0,8.0,67,0.00,,,-99.99,,2013-01-19 08:12:00,
2013-01-19 02:22:00,38.0,28.0,-100.00,SSW,210,5.0,7.0,67,0.00,,,-99.99,,2013-01-19 08:22:00,
2013-01-19 02:32:00,37.0,28.0,-100.00,SSW,195,4.0,6.0,67,0.00,,,-99.99,,2013-01-19 08:32:00,
2013-01-19 02:42:00,37.0,28.0,-100.00,SSW,195,4.0,6.0,67,0.00,,,-99.99,,2013-01-19 08:42:00,
2013-01-19 02:52:00,37.0,28.0,-100.00,South,185,4.0,5.0,68,0.00,,,-99.99,,2013-01-19 08:52:00,
2013-01-19 03:02:00,37.0,28.0,-100.00,South,185,4.0,5.0,68,0.00,,,-99.99,,2013-01-19 09:02:00,
2013-01-19 03:12:00,37.0,28.0,-100.00,SSW,195,4.0,5.0,69,0.00,,,-99.99,,2013-01-19 09:12:00,
2013-01-19 03:22:00,37.0,28.0,-100.00,SSW,205,4.0,6.0,69,0.00,,,-99.99,,2013-01-19 09:22:00,
2013-01-19 03:32:00,38.0,29.0,-100.00,SSW,210,6.0,7.0,68,0.00,,,-99.99,,2013-01-19 09:32:00,
2013-01-19 03:42:00,38.0,29.0,-100.00,SSW,210,6.0,7.0,68,0.00,,,-99.99,,2013-01-19 09:42:00,
2013-01-19 03:52:00,38.0,29.0,-100.00,SSW,210,6.0,7.0,69,0.00,,,-99.99,,2013-01-19 09:52:00,
2013-01-19 04:02:00,38.0,29.0,-100.00,SSW,210,6.0,7.0,69,0.00,,,-99.99,,2013-01-19 10:02:00,
2013-01-19 04:12:00,37.0,29.0,-100.00,SSW,205,6.0,7.0,70,0.00,,,-99.99,,2013-01-19 10:12:00,
2013-01-19 04:22:00,37.0,29.0,-100.00,SSW,205,6.0,7.0,70,0.00,,,-99.99,,2013-01-19 10:22:00,
2013-01-19 04:32:00,37.0,29.0,-100.00,SSW,205,7.0,9.0,71,0.00,,,-99.99,,2013-01-19 10:32:00,
2013-01-19 04:42:00,37.0,29.0,-100.00,SSW,205,7.0,9.0,71,0.00,,,-99.99,,2013-01-19 10:42:00,
2013-01-19 04:52:00,37.0,29.0,-100.00,SSW,200,6.0,7.0,72,0.00,,,-99.99,,2013-01-19 10:52:00,
2013-01-19 05:03:00,37.0,29.0,-100.00,SSW,200,6.0,7.0,72,0.00,,,-99.99,,2013-01-19 11:03:00,
2013-01-19 05:12:00,37.0,29.0,-100.00,SSW,200,6.0,7.0,72,0.00,,,-99.99,,2013-01-19 11:12:00,
2013-01-19 06:48:00,37.0,29.0,-100.00,West,260,4.0,7.0,73,0.00,,,-99.99,,2013-01-19 12:48:00,
2013-01-19 06:52:00,37.0,29.0,-100.00,SW,220,6.0,9.0,73,0.00,,,-99.99,,2013-01-19 12:52:00,
2013-01-19 07:03:00,37.0,29.0,-100.00,SW,220,6.0,9.0,73,0.00,,,-99.99,,2013-01-19 13:03:00,
2013-01-19 07:12:00,37.0,29.0,-100.00,SW,220,6.0,9.0,73,0.00,,,-99.99,,2013-01-19 13:12:00,
2013-01-19 07:22:00,37.0,29.0,-100.00,SSW,210,4.0,6.0,72,0.00,,,-99.99,,2013-01-19 13:22:00,
2013-01-19 07:33:00,37.0,29.0,-100.00,SW,220,4.0,6.0,72,0.00,,,-99.99,,2013-01-19 13:33:00,
2013-01-19 07:42:00,37.0,29.0,-100.00,SSW,205,6.0,7.0,72,0.00,,,-99.99,,2013-01-19 13:42:00,
2013-01-19 07:53:00,37.0,29.0,-100.00,SSW,210,6.0,7.0,72,0.00,,,-99.99,,2013-01-19 13:53:00,
2013-01-19 08:02:00,37.0,29.0,-100.00,SSW,210,6.0,7.0,72,0.00,,,-99.99,,2013-01-19 14:02:00,
2013-01-19 08:12:00,37.0,29.0,-100.00,SSW,210,4.0,6.0,74,0.00,,,-99.99,,2013-01-19 14:12:00,
2013-01-19 08:23:00,37.0,29.0,-100.00,SW,220,5.0,6.0,74,0.00,,,-99.99,,2013-01-19 14:23:00,
2013-01-19 08:33:00,38.0,29.0,-100.00,WSW,240,6.0,9.0,71,0.00,,,-99.99,,2013-01-19 14:33:00,
2013-01-19 08:43:00,38.0,29.0,-100.00,WSW,240,6.0,9.0,71,0.00,,,-99.99,,2013-01-19 14:43:00,
2013-01-19 08:53:00,37.0,29.0,-100.00,SSW,210,6.0,9.0,72,0.00,,,-99.99,,2013-01-19 14:53:00,
2013-01-19 09:03:00,37.0,29.0,-100.00,SSW,210,6.0,9.0,72,0.00,,,-99.99,,2013-01-19 15:03:00,
2013-01-19 09:12:00,37.0,29.0,-100.00,SW,225,7.0,9.0,73,0.00,,,-99.99,,2013-01-19 15:12:00,
2013-01-19 09:22:00,37.0,29.0,-100.00,WSW,250,7.0,11.0,73,0.00,,,-99.99,,2013-01-19 15:22:00,
2013-01-19 09:33:00,38.0,29.0,-100.00,WSW,245,7.0,10.0,69,0.00,,,-99.99,,2013-01-19 15:33:00,
2013-01-19 09:43:00,38.0,29.0,-100.00,WSW,245,7.0,10.0,69,0.00,,,-99.99,,2013-01-19 15:43:00,
2013-01-19 09:53:00,39.0,29.0,-100.00,WSW,240,6.0,9.0,67,0.00,,,-99.99,,2013-01-19 15:53:00,
2013-01-19 10:03:00,39.0,29.0,-100.00,WSW,240,6.0,9.0,67,0.00,,,-99.99,,2013-01-19 16:03:00,
2013-01-19 10:12:00,41.0,30.0,-100.00,WSW,240,7.0,11.0,64,0.00,,,-99.99,,2013-01-19 16:12:00,
2013-01-19 10:23:00,41.0,29.0,-100.00,WSW,250,7.0,13.0,61,0.00,,,-99.99,,2013-01-19 16:23:00,
2013-01-19 10:33:00,43.0,29.0,-100.00,WSW,250,10.0,13.0,56,0.00,,,-99.99,,2013-01-19 16:33:00,
2013-01-19 10:43:00,43.0,29.0,-100.00,WSW,250,10.0,13.0,56,0.00,,,-99.99,,2013-01-19 16:43:00,
2013-01-19 10:53:00,44.0,28.0,-100.00,West,265,14.0,17.0,52,0.00,,,-99.99,,2013-01-19 16:53:00,
2013-01-19 11:02:00,44.0,28.0,-100.00,West,265,14.0,17.0,52,0.00,,,-99.99,,2013-01-19 17:02:00,
2013-01-19 11:17:00,45.0,28.0,-100.00,West,270,11.0,19.0,50,0.00,,,-99.99,,2013-01-19 17:17:00,
2013-01-19 11:27:00,45.0,28.0,-100.00,West,280,14.0,17.0,49,0.00,,,-99.99,,2013-01-19 17:27:00,
2013-01-19 11:35:00,46.0,27.0,-100.00,West,275,16.0,20.0,48,0.00,,,-99.99,,2013-01-19 17:35:00,
2013-01-19 11:46:00,46.0,27.0,-100.00,West,275,16.0,20.0,48,0.00,,,-99.99,,2013-01-19 17:46:00,
2013-01-19 11:53:00,47.0,28.0,-100.00,WNW,285,14.0,20.0,46,0.00,,,-99.99,,2013-01-19 17:53:00,
2013-01-19 12:13:00,48.0,28.0,-100.00,West,280,12.0,21.0,44,0.00,,,-99.99,,2013-01-19 18:13:00,
2013-01-19 12:34:00,49.0,28.0,-100.00,WNW,290,17.0,24.0,44,0.00,,,-99.99,,2013-01-19 18:34:00,
2013-01-19 12:44:00,49.0,28.0,-100.00,WNW,290,17.0,24.0,44,0.00,,,-99.99,,2013-01-19 18:44:00,
2013-01-19 12:54:00,49.0,28.0,-100.00,WNW,290,15.0,26.0,44,0.00,,,-99.99,,2013-01-19 18:54:00,
2013-01-19 13:07:00,49.0,28.0,-100.00,WNW,290,15.0,26.0,44,0.00,,,-99.99,,2013-01-19 19:07:00,
2013-01-19 13:18:00,49.0,28.0,-100.00,WNW,285,12.0,24.0,44,0.00,,,-99.99,,2013-01-19 19:18:00,
2013-01-19 13:38:00,49.0,28.0,-100.00,WNW,295,12.0,21.0,44,0.00,,,-99.99,,2013-01-19 19:38:00,
2013-01-19 13:45:00,49.0,28.0,-100.00,WNW,295,12.0,21.0,44,0.00,,,-99.99,,2013-01-19 19:45:00,
2013-01-19 13:57:00,49.0,28.0,-100.00,WNW,300,15.0,21.0,44,0.00,,,-99.99,,2013-01-19 19:57:00,
2013-01-19 14:09:00,49.0,28.0,-100.00,WNW,300,15.0,21.0,44,0.00,,,-99.99,,2013-01-19 20:09:00,
2013-01-19 14:17:00,49.0,28.0,-100.00,WNW,300,15.0,21.0,44,0.00,,,-99.99,,2013-01-19 20:17:00,
2013-01-19 14:24:00,50.0,29.0,-100.00,WNW,285,10.0,21.0,44,0.00,,,-99.99,,2013-01-19 20:24:00,
2013-01-19 14:37:00,51.0,29.0,-100.00,WNW,300,12.0,19.0,42,0.00,,,-99.99,,2013-01-19 20:37:00,
2013-01-19 14:45:00,51.0,29.0,-100.00,WNW,300,12.0,19.0,42,0.00,,,-99.99,,2013-01-19 20:45:00,
2013-01-19 14:58:00,51.0,29.0,-100.00,WNW,300,14.0,21.0,42,0.00,,,-99.99,,2013-01-19 20:58:00,
2013-01-19 15:14:00,51.0,29.0,-100.00,West,280,13.0,21.0,42,0.00,,,-99.99,,2013-01-19 21:14:00,
2013-01-19 15:25:00,51.0,29.0,-100.00,WNW,290,9.0,27.0,42,0.00,,,-99.99,,2013-01-19 21:25:00,
2013-01-19 15:50:00,50.0,28.0,-100.00,WNW,295,17.0,27.0,42,0.00,,,-99.99,,2013-01-19 21:50:00,
2013-01-19 15:55:00,50.0,28.0,-100.00,West,280,17.0,31.0,42,0.00,,,-99.99,,2013-01-19 21:55:00,
2013-01-19 16:12:00,50.0,28.0,-100.00,West,280,17.0,31.0,42,0.00,,,-99.99,,2013-01-19 22:12:00,
2013-01-19 16:17:00,49.0,27.0,-100.00,WNW,295,16.0,29.0,42,0.00,,,-99.99,,2013-01-19 22:17:00,
2013-01-19 16:25:00,48.0,27.0,-100.00,NW,305,15.0,28.0,42,0.00,,,-99.99,,2013-01-19 22:25:00,
2013-01-19 16:34:00,47.0,26.0,-100.00,WNW,290,21.0,30.0,44,0.00,,,-99.99,,2013-01-19 22:34:00,
2013-01-19 16:45:00,47.0,26.0,-100.00,WNW,290,21.0,30.0,44,0.00,,,-99.99,,2013-01-19 22:45:00,
2013-01-19 16:54:00,45.0,27.0,-100.00,WNW,300,13.0,26.0,47,0.00,,,-99.99,,2013-01-19 22:54:00,
2013-01-19 17:12:00,45.0,27.0,-100.00,WNW,300,13.0,26.0,47,0.00,,,-99.99,,2013-01-19 23:12:00,
2013-01-19 17:25:00,44.0,27.0,-100.00,West,280,11.0,20.0,49,0.00,,,-99.99,,2013-01-19 23:25:00,
2013-01-19 17:34:00,43.0,27.0,-100.00,WNW,285,13.0,23.0,51,0.00,,,-99.99,,2013-01-19 23:34:00,
2013-01-19 17:45:00,43.0,27.0,-100.00,WNW,285,13.0,23.0,51,0.00,,,-99.99,,2013-01-19 23:45:00,
2013-01-19 17:58:00,42.0,26.0,-100.00,WNW,300,16.0,26.0,52,0.00,,,-99.99,,2013-01-19 23:58:00,
2013-01-19 18:08:00,42.0,26.0,-100.00,WNW,300,16.0,26.0,52,0.00,,,-99.99,,2013-01-20 00:08:00,
2013-01-19 18:14:00,42.0,27.0,-100.00,WNW,290,12.0,24.0,55,0.00,,,-99.99,,2013-01-20 00:14:00,
2013-01-19 18:24:00,42.0,27.0,-100.00,WNW,300,14.0,24.0,55,0.00,,,-99.99,,2013-01-20 00:24:00,
2013-01-19 18:35:00,41.0,27.0,-100.00,WNW,295,17.0,26.0,57,0.00,,,-99.99,,2013-01-20 00:35:00,
2013-01-19 18:45:00,41.0,27.0,-100.00,WNW,295,17.0,26.0,57,0.00,,,-99.99,,2013-01-20 00:45:00,
2013-01-19 18:53:00,40.0,25.0,-100.00,NW,305,21.0,29.0,56,0.00,,,-99.99,,2013-01-20 00:53:00,
2013-01-19 19:03:00,40.0,25.0,-100.00,NW,305,21.0,29.0,56,0.00,,,-99.99,,2013-01-20 01:03:00,
2013-01-19 19:18:00,39.0,25.0,-100.00,NW,315,16.0,27.0,56,0.00,,,-99.99,,2013-01-20 01:18:00,
2013-01-19 19:35:00,37.0,19.0,-100.00,WNW,295,23.0,34.0,48,0.00,,,-99.99,,2013-01-20 01:35:00,
2013-01-19 19:45:00,37.0,19.0,-100.00,WNW,295,23.0,34.0,48,0.00,,,-99.99,,2013-01-20 01:45:00,
2013-01-19 20:06:00,36.0,18.0,-100.00,WNW,295,23.0,34.0,47,0.00,,,-99.99,,2013-01-20 02:06:00,
2013-01-19 20:14:00,35.0,16.0,-100.00,WNW,295,16.0,26.0,46,0.00,,,-99.99,,2013-01-20 02:14:00,
2013-01-19 20:25:00,31.0,15.0,-100.00,NNW,340,20.0,28.0,50,0.00,,,-99.99,,2013-01-20 02:25:00,
2013-01-19 20:35:00,30.0,16.0,-100.00,NNW,340,17.0,28.0,53,0.00,,,-99.99,,2013-01-20 02:35:00,
2013-01-19 20:55:00,27.0,17.0,-100.00,NNW,340,24.0,34.0,63,0.00,,,-99.99,,2013-01-20 02:55:00,
2013-01-19 21:07:00,27.0,17.0,-100.00,NNW,340,24.0,34.0,63,0.00,,,-99.99,,2013-01-20 03:07:00,
2013-01-19 21:14:00,27.0,16.0,-100.00,NW,325,20.0,30.0,62,0.00,,,-99.99,,2013-01-20 03:14:00,
2013-01-19 21:25:00,26.0,15.0,-100.00,NNW,340,17.0,29.0,62,0.00,,,-99.99,,2013-01-20 03:25:00,
2013-01-19 21:37:00,24.0,13.0,-100.00,NW,305,18.0,37.0,61,0.00,,,-99.99,,2013-01-20 03:37:00,
2013-01-19 21:45:00,24.0,13.0,-100.00,NW,305,18.0,37.0,61,0.00,,,-99.99,,2013-01-20 03:45:00,
2013-01-19 21:53:00,23.0,12.0,-100.00,NW,320,19.0,33.0,61,0.00,,,-99.99,,2013-01-20 03:53:00,
2013-01-19 22:04:00,22.0,10.0,-100.00,NW,320,21.0,32.0,58,0.00,,,-99.99,,2013-01-20 04:04:00,
2013-01-19 22:15:00,21.0,9.0,-100.00,NW,325,24.0,32.0,58,0.00,,,-99.99,,2013-01-20 04:15:00,
2013-01-19 22:24:00,20.0,8.0,-100.00,NW,315,22.0,35.0,57,0.00,,,-99.99,,2013-01-20 04:24:00,
2013-01-19 22:35:00,20.0,8.0,-100.00,NW,315,22.0,35.0,57,0.00,,,-99.99,,2013-01-20 04:35:00,
2013-01-19 22:44:00,20.0,8.0,-100.00,NW,315,22.0,35.0,57,0.00,,,-99.99,,2013-01-20 04:44:00,
2013-01-19 22:54:00,18.0,4.0,-100.00,NW,310,18.0,30.0,53,0.00,,,-99.99,,2013-01-20 04:54:00,
2013-01-19 23:04:00,18.0,4.0,-100.00,NW,310,18.0,30.0,53,0.00,,,-99.99,,2013-01-20 05:04:00,
2013-01-19 23:12:00,18.0,4.0,-100.00,NW,310,21.0,27.0,53,0.00,,,-99.99,,2013-01-20 05:12:00,
2013-01-19 23:22:00,17.0,3.0,-100.00,NW,310,20.0,26.0,53,0.00,,,-99.99,,2013-01-20 05:22:00,
2013-01-19 23:32:00,17.0,3.0,-100.00,NW,320,15.0,22.0,53,0.00,,,-99.99,,2013-01-20 05:32:00,
2013-01-19 23:42:00,17.0,3.0,-100.00,NW,320,15.0,22.0,53,0.00,,,-99.99,,2013-01-20 05:42:00,
2013-01-19 23:53:00,16.0,3.0,-100.00,WNW,300,12.0,22.0,54,0.00,,,-99.99,,2013-01-20 05:53:00,